�v������,,���ԉ��x,�����t���O,���Ԏ��x,�����t���O,��Q��,�����t���O,�q����,�����t���O,����,�����t���O
2003/6/1,0:00:00,24,0,49.5,0,24.2,0,24.4,0,14.4,0
2003/6/1,0:10:00,24,0,49.4,0,24.2,0,24.5,0,14.5,0
2003/6/1,0:20:00,24,0,49.3,0,24.2,0,24.5,0,17.3,0
2003/6/1,0:30:00,23.9,0,49.1,0,24.2,0,24.4,0,17.3,0
2003/6/1,0:40:00,23.9,0,49,0,24.1,0,24.4,0,17.4,0
2003/6/1,0:50:00,23.9,0,48.9,0,24.1,0,24.4,0,15.6,0
2003/6/1,1:00:00,23.9,0,48.9,0,24.1,0,24.4,0,15.6,0
2003/6/1,1:10:00,23.9,0,48.9,0,24,0,24.4,0,15.7,0
2003/6/1,1:20:00,23.8,0,48.8,0,24,0,24.4,0,15.8,0
2003/6/1,1:30:00,23.8,0,48.9,0,24,0,24.4,0,15.3,0
2003/6/1,1:40:00,23.8,0,48.9,0,24,0,24.4,0,15.3,0
2003/6/1,1:50:00,23.8,0,48.9,0,24,0,24.4,0,15.4,0
2003/6/1,2:00:00,23.8,0,48.9,0,23.9,0,24.3,0,15.1,0
2003/6/1,2:10:00,23.8,0,49.2,0,23.9,0,24.3,0,15.2,0
2003/6/1,2:20:00,23.8,0,49.1,0,23.9,0,24.3,0,14.7,0
2003/6/1,2:30:00,23.7,0,49.2,0,23.9,0,24.3,0,14.8,0
2003/6/1,2:40:00,23.7,0,49.2,0,23.9,0,24.3,0,14.8,0
2003/6/1,2:50:00,23.7,0,49.2,0,23.9,0,24.3,0,14.9,0
2003/6/1,3:00:00,23.7,0,49.3,0,23.9,0,24.3,0,14.9,0
2003/6/1,3:10:00,23.7,0,49.3,0,23.8,0,24.2,0,15,0
2003/6/1,3:20:00,23.7,0,49.2,0,23.8,0,24.2,0,15,0
2003/6/1,3:30:00,23.7,0,49.4,0,23.8,0,24.2,0,15.1,0
2003/6/1,3:40:00,23.7,0,49.4,0,23.8,0,24.1,0,15.2,0
2003/6/1,3:50:00,23.6,0,49.5,0,23.8,0,24.1,0,15.2,0
2003/6/1,4:00:00,23.6,0,49.5,0,23.8,0,24.1,0,15.3,0
2003/6/1,4:10:00,23.6,0,49.4,0,23.8,0,24,0,15.4,0
2003/6/1,4:20:00,23.6,0,49.5,0,23.7,0,24,0,15.5,0
2003/6/1,4:30:00,23.6,0,49.4,0,23.7,0,24,0,17.2,0
2003/6/1,4:40:00,23.6,0,49.6,0,23.7,0,24,0,17.3,0
2003/6/1,4:50:00,23.5,0,49.5,0,23.8,0,24,0,17.3,0
2003/6/1,5:00:00,23.5,0,49.3,0,23.8,0,23.9,0,17.3,0
2003/6/1,5:10:00,23.5,0,49.3,0,23.8,0,23.9,0,17.4,0
2003/6/1,5:20:00,23.5,0,49.1,0,23.9,0,23.9,0,17.4,0
2003/6/1,5:30:00,23.5,0,49.1,0,23.9,0,23.9,0,17.4,0
2003/6/1,5:40:00,23.4,0,49.2,0,23.9,0,23.9,0,17.5,0
2003/6/1,5:50:00,23.4,0,49.1,0,23.9,0,23.8,0,17.5,0
2003/6/1,6:00:00,23.4,0,49.1,0,23.9,0,23.8,0,17.6,0
2003/6/1,6:10:00,23.4,0,49.2,0,24,0,23.8,0,17.6,0
2003/6/1,6:20:00,23.4,0,49.3,0,24,0,23.8,0,17.6,0
2003/6/1,6:30:00,23.4,0,49.4,0,23.9,0,23.8,0,17.7,0
2003/6/1,6:40:00,23.4,0,49.3,0,23.9,0,23.8,0,17.7,0
2003/6/1,6:50:00,23.3,0,49.4,0,23.9,0,23.7,0,18.1,0
2003/6/1,7:00:00,23.3,0,49.7,0,23.9,0,23.7,0,18.1,0
2003/6/1,7:10:00,23.3,0,49.9,0,23.9,0,23.7,0,18.1,0
2003/6/1,7:20:00,23.3,0,50.1,0,23.9,0,23.7,0,14.8,0
2003/6/1,7:30:00,23.3,0,50.3,0,23.9,0,23.7,0,14.9,0
2003/6/1,7:40:00,23.2,0,50.4,0,23.9,0,23.6,0,15,0
2003/6/1,7:50:00,23.3,0,50.5,0,23.9,0,23.6,0,15,0
2003/6/1,8:00:00,23.3,0,50.4,0,23.9,0,23.6,0,15.1,0
2003/6/1,8:10:00,23.3,0,50.2,0,23.9,0,23.6,0,15.1,0
2003/6/1,8:20:00,23.3,0,50.2,0,23.9,0,23.5,0,15.2,0
2003/6/1,8:30:00,23.3,0,50.6,0,23.9,0,23.5,0,15.3,0
2003/6/1,8:40:00,23.3,0,50.8,0,23.9,0,23.5,0,15.3,0
2003/6/1,8:50:00,23.3,0,51.5,0,23.9,0,23.5,0,15.4,0
2003/6/1,9:00:00,23.2,0,51.7,0,23.9,0,23.5,0,15.5,0
2003/6/1,9:10:00,23.2,0,52.6,0,23.9,0,23.5,0,15,0
2003/6/1,9:20:00,23.2,0,52.5,0,23.9,0,23.5,0,15,0
2003/6/1,9:30:00,23.2,0,52.7,0,23.9,0,23.5,0,15.1,0
2003/6/1,9:40:00,23.2,0,52.7,0,23.9,0,23.5,0,15.1,0
2003/6/1,9:50:00,23.2,0,53.1,0,23.9,0,23.5,0,15.2,0
2003/6/1,10:00:00,23.2,0,53.2,0,23.9,0,23.5,0,13.3,0
2003/6/1,10:10:00,23.2,0,52.8,0,23.9,0,23.5,0,13.3,0
2003/6/1,10:20:00,23.2,0,52.7,0,23.9,0,23.6,0,13.1,0
2003/6/1,10:30:00,23.2,0,52.4,0,23.9,0,23.6,0,12.4,0
2003/6/1,10:40:00,23.2,0,52.1,0,23.9,0,23.6,0,12.5,0
2003/6/1,10:50:00,23.2,0,52.6,0,23.9,0,23.6,0,12.6,0
2003/6/1,11:00:00,23.3,0,52.9,0,23.9,0,23.6,0,12.6,0
2003/6/1,11:10:00,23.3,0,53.1,0,23.8,0,23.7,0,13.4,0
2003/6/1,11:20:00,23.3,0,53.3,0,23.8,0,23.7,0,13.5,0
2003/6/1,11:30:00,23.3,0,53.4,0,23.7,0,23.7,0,13.5,0
2003/6/1,11:40:00,23.3,0,53.5,0,23.6,0,23.7,0,13.6,0
2003/6/1,11:50:00,23.3,0,53.6,0,23.6,0,23.7,0,13.8,0
2003/6/1,12:00:00,23.4,0,54,0,23.6,0,23.7,0,13.9,0
2003/6/1,12:10:00,23.4,0,54.1,0,23.6,0,23.7,0,14,0
2003/6/1,12:20:00,23.4,0,53.8,0,23.7,0,23.8,0,14,0
2003/6/1,12:30:00,23.4,0,53.5,0,23.7,0,23.8,0,14.1,0
2003/6/1,12:40:00,23.4,0,53.4,0,23.7,0,23.9,0,14.2,0
2003/6/1,12:50:00,23.5,0,53.5,0,23.7,0,24,0,14.2,0
2003/6/1,13:00:00,23.5,0,53.8,0,23.7,0,24.1,0,14.4,0
2003/6/1,13:10:00,23.5,0,53.7,0,23.8,0,24.1,0,14.5,0
2003/6/1,13:20:00,23.5,0,53.6,0,23.8,0,24.1,0,14.5,0
2003/6/1,13:30:00,23.5,0,53.5,0,23.8,0,24.1,0,10.9,0
2003/6/1,13:40:00,23.5,0,53.8,0,23.8,0,24.2,0,11.2,0
2003/6/1,13:50:00,23.5,0,54.3,0,23.8,0,24.2,0,11.2,0
2003/6/1,14:00:00,23.5,0,54.1,0,23.8,0,24.2,0,11.3,0
2003/6/1,14:10:00,23.6,0,53.9,0,23.9,0,24.3,0,11.4,0
2003/6/1,14:20:00,23.6,0,53.4,0,23.9,0,24.3,0,11.5,0
2003/6/1,14:30:00,23.6,0,53.2,0,23.9,0,24.3,0,11.6,0
2003/6/1,14:40:00,23.6,0,52.9,0,23.9,0,24.3,0,11.7,0
2003/6/1,14:50:00,23.6,0,52.7,0,23.9,0,24.2,0,13.6,0
2003/6/1,15:00:00,23.6,0,52.6,0,23.9,0,24.2,0,13.7,0
2003/6/1,15:10:00,23.6,0,52.6,0,23.9,0,24.2,0,13.7,0
2003/6/1,15:20:00,23.6,0,52.3,0,23.9,0,24.3,0,13.8,0
2003/6/1,15:30:00,23.6,0,52.2,0,23.9,0,24.3,0,14.6,0
2003/6/1,15:40:00,23.6,0,52.1,0,23.9,0,24.3,0,14.7,0
2003/6/1,15:50:00,23.6,0,52,0,23.9,0,24.3,0,14.7,0
2003/6/1,16:00:00,23.6,0,51.8,0,23.9,0,24.3,0,14.8,0
2003/6/1,16:10:00,23.6,0,52.1,0,23.9,0,24.3,0,15.5,0
2003/6/1,16:20:00,23.6,0,52.1,0,24,0,24.3,0,15.5,0
2003/6/1,16:30:00,23.6,0,52.1,0,24,0,24.3,0,15.6,0
2003/6/1,16:40:00,23.6,0,51.9,0,24,0,24.3,0,15.6,0
2003/6/1,16:50:00,23.6,0,51.8,0,24,0,24.3,0,15.7,0
2003/6/1,17:00:00,23.6,0,51.8,0,24,0,24.3,0,15.8,0
2003/6/1,17:10:00,23.6,0,51.7,0,24,0,24.3,0,15.8,0
2003/6/1,17:20:00,23.6,0,51.5,0,23.9,0,24.3,0,15.9,0
2003/6/1,17:30:00,23.6,0,51.4,0,23.9,0,24.3,0,15.9,0
2003/6/1,17:40:00,23.6,0,51.4,0,23.9,0,24.3,0,16,0
2003/6/1,17:50:00,23.6,0,51.1,0,23.9,0,24.4,0,17.1,0
2003/6/1,18:00:00,23.6,0,51.2,0,23.9,0,24.4,0,17.1,0
2003/6/1,18:10:00,23.6,0,51.1,0,23.9,0,24.4,0,14.6,0
2003/6/1,18:20:00,23.6,0,51.2,0,23.9,0,24.4,0,14.7,0
2003/6/1,18:30:00,23.6,0,51.5,0,23.9,0,24.4,0,13.5,0
2003/6/1,18:40:00,23.7,0,52.1,0,23.9,0,24.3,0,12.6,0
2003/6/1,18:50:00,23.7,0,52,0,23.9,0,24.3,0,12.7,0
2003/6/1,19:00:00,23.7,0,52.4,0,23.9,0,24.3,0,12.7,0
2003/6/1,19:10:00,23.7,0,51.9,0,23.9,0,24.3,0,12.8,0
2003/6/1,19:20:00,23.7,0,51.8,0,23.9,0,24.3,0,12.9,0
2003/6/1,19:30:00,23.7,0,51.6,0,23.9,0,24.2,0,13,0
2003/6/1,19:40:00,23.7,0,51.5,0,24,0,24.3,0,13.1,0
2003/6/1,19:50:00,23.7,0,51.6,0,24,0,24.4,0,14.1,0
2003/6/1,20:00:00,23.7,0,51.5,0,24,0,24.4,0,14.2,0
2003/6/1,20:10:00,23.7,0,51.3,0,24,0,24.5,0,14.6,0
2003/6/1,20:20:00,23.7,0,51.3,0,24,0,24.5,0,14.7,0
2003/6/1,20:30:00,23.7,0,51.1,0,24,0,24.5,0,13.9,0
2003/6/1,20:40:00,23.7,0,51,0,24,0,24.5,0,13.9,0
2003/6/1,20:50:00,23.7,0,51.2,0,24,0,24.5,0,14,0
2003/6/1,21:00:00,23.7,0,50.9,0,23.9,0,24.5,0,14,0
2003/6/1,21:10:00,23.7,0,51,0,23.9,0,24.5,0,14.1,0
2003/6/1,21:20:00,23.7,0,51.3,0,23.9,0,24.5,0,13,0
2003/6/1,21:30:00,23.8,0,52,0,24,0,24.5,0,10.9,0
2003/6/1,21:40:00,23.8,0,51.9,0,24,0,24.5,0,11,0
2003/6/1,21:50:00,23.8,0,51.8,0,24.1,0,24.5,0,12.3,0
2003/6/1,22:00:00,23.8,0,51.1,0,24.1,0,24.5,0,12.4,0
2003/6/1,22:10:00,23.8,0,51.2,0,24.2,0,24.5,0,12.4,0
2003/6/1,22:20:00,23.8,0,51.3,0,24.2,0,24.5,0,12.5,0
2003/6/1,22:30:00,23.8,0,51.1,0,24.2,0,24.5,0,12.6,0
2003/6/1,22:40:00,23.8,0,51,0,24.2,0,24.5,0,12.7,0
2003/6/1,22:50:00,23.8,0,50.9,0,24.2,0,24.5,0,12.8,0
2003/6/1,23:00:00,23.8,0,50.8,0,24.3,0,24.5,0,12.8,0
2003/6/1,23:10:00,23.8,0,50.9,0,24.3,0,24.5,0,15,0
2003/6/1,23:20:00,23.8,0,50.6,0,24.3,0,24.5,0,15.1,0
2003/6/1,23:30:00,23.8,0,50.4,0,24.3,0,24.5,0,15.1,0
2003/6/1,23:40:00,23.8,0,50.4,0,24.3,0,24.5,0,16.1,0
2003/6/1,23:50:00,23.8,0,50.3,0,24.4,0,24.5,0,16.1,0
2003/6/2,0:00:00,23.8,0,50.2,0,24.4,0,24.5,0,16.2,0
2003/6/2,0:10:00,23.7,0,50.1,0,24.4,0,24.5,0,16,0
2003/6/2,0:20:00,23.8,0,50.2,0,24.4,0,24.4,0,14,0
2003/6/2,0:30:00,23.7,0,50.1,0,24.5,0,24.4,0,14.1,0
2003/6/2,0:40:00,23.7,0,50.1,0,24.5,0,24.4,0,14.2,0
2003/6/2,0:50:00,23.7,0,50.1,0,24.5,0,24.4,0,14.2,0
2003/6/2,1:00:00,23.7,0,50,0,24.5,0,24.4,0,14.3,0
2003/6/2,1:10:00,23.7,0,50,0,24.5,0,24.3,0,14.3,0
2003/6/2,1:20:00,23.7,0,49.9,0,24.5,0,24.3,0,14.4,0
2003/6/2,1:30:00,23.7,0,49.8,0,24.6,0,24.2,0,14.5,0
2003/6/2,1:40:00,23.7,0,49.7,0,24.6,0,24.2,0,14.5,0
2003/6/2,1:50:00,23.6,0,49.3,0,24.5,0,24.1,0,14.6,0
2003/6/2,2:00:00,23.6,0,48.7,0,24.5,0,24.1,0,14.7,0
2003/6/2,2:10:00,23.6,0,48.5,0,24.6,0,24.1,0,14.7,0
2003/6/2,2:20:00,23.6,0,48.5,0,24.6,0,24,0,14.8,0
2003/6/2,2:30:00,23.5,0,48.6,0,24.6,0,24,0,14.8,0
2003/6/2,2:40:00,23.5,0,48.7,0,24.6,0,24,0,14.9,0
2003/6/2,2:50:00,23.5,0,48.6,0,24.6,0,23.9,0,15,0
2003/6/2,3:00:00,23.5,0,48.7,0,24.6,0,23.9,0,15,0
2003/6/2,3:10:00,23.4,0,48.3,0,24.6,0,23.8,0,15.1,0
2003/6/2,3:20:00,23.4,0,48.5,0,24.6,0,23.8,0,15.2,0
2003/6/2,3:30:00,23.4,0,48.3,0,24.7,0,23.8,0,15.3,0
2003/6/2,3:40:00,23.4,0,48.2,0,24.6,0,23.7,0,15.3,0
2003/6/2,3:50:00,23.3,0,48.3,0,24.6,0,23.7,0,15.4,0
2003/6/2,4:00:00,23.3,0,48.2,0,24.6,0,23.6,0,15.5,0
2003/6/2,4:10:00,23.3,0,48.5,0,24.6,0,23.6,0,15.6,0
2003/6/2,4:20:00,23.2,0,48.3,0,24.6,0,23.6,0,15.6,0
2003/6/2,4:30:00,23.2,0,48.6,0,24.6,0,23.5,0,15.7,0
2003/6/2,4:40:00,23.2,0,48.5,0,24.6,0,23.5,0,15.8,0
2003/6/2,4:50:00,23.2,0,48.4,0,24.6,0,23.5,0,15.8,0
2003/6/2,5:00:00,23.2,0,48.5,0,24.5,0,23.4,0,15.9,0
2003/6/2,5:10:00,23.1,0,48.5,0,24.5,0,23.4,0,16,0
2003/6/2,5:20:00,23.1,0,48.5,0,24.5,0,23.4,0,16,0
2003/6/2,5:30:00,23.1,0,48.5,0,24.5,0,23.3,0,16.1,0
2003/6/2,5:40:00,23.1,0,48.5,0,24.5,0,23.3,0,16.1,0
2003/6/2,5:50:00,23.1,0,48.7,0,24.5,0,23.3,0,16.2,0
2003/6/2,6:00:00,23,0,48.6,0,24.5,0,23.3,0,18.1,0
2003/6/2,6:10:00,23,0,49,0,24.6,0,23.3,0,18.1,0
2003/6/2,6:20:00,23,0,49.2,0,24.5,0,23.2,0,14.3,0
2003/6/2,6:30:00,23,0,49.2,0,24.4,0,23.2,0,13.4,0
2003/6/2,6:40:00,23,0,49.5,0,24.3,0,23.2,0,13.5,0
2003/6/2,6:50:00,23,0,49.6,0,24.2,0,23.2,0,13.1,0
2003/6/2,7:00:00,23,0,49.6,0,24.2,0,23.2,0,12.8,0
2003/6/2,7:10:00,23,0,49.8,0,24.1,0,23.2,0,12.8,0
2003/6/2,7:20:00,23.1,0,50,0,24.1,0,23.2,0,12.9,0
2003/6/2,7:30:00,23.1,0,50.1,0,24,0,23.1,0,12.6,0
2003/6/2,7:40:00,23.1,0,50.2,0,24,0,23.1,0,12.6,0
2003/6/2,7:50:00,23.1,0,50.5,0,24,0,23.1,0,12.7,0
2003/6/2,8:00:00,23.2,0,50,0,24,0,23.1,0,13,0
2003/6/2,8:10:00,23.2,0,49.5,0,23.9,0,23.1,0,12,0
2003/6/2,8:20:00,23.2,0,49.2,0,23.9,0,23.1,0,12,0
2003/6/2,8:30:00,23.2,0,49.1,0,24,0,23.1,0,12.1,0
2003/6/2,8:40:00,23.2,0,49.1,0,24,0,23.1,0,12.1,0
2003/6/2,8:50:00,23.2,0,48.2,0,22.6,0,23.1,0,12.4,0
2003/6/2,9:00:00,23.2,0,47.8,0,21.9,0,23.1,0,12.6,0
2003/6/2,9:10:00,23.2,0,47.7,0,21.9,0,23.1,0,12.7,0
2003/6/2,9:20:00,23.2,0,47.5,0,21.8,0,23.1,0,12.7,0
2003/6/2,9:30:00,23.2,0,47.4,0,21.2,0,23.1,0,12.8,0
2003/6/2,9:40:00,23.1,0,47.5,0,21.3,0,23,0,13.2,0
2003/6/2,9:50:00,23.2,0,47.6,0,21.8,0,23,0,13.3,0
2003/6/2,10:00:00,23.2,0,48.1,0,22.4,0,23,0,13.4,0
2003/6/2,10:10:00,23.2,0,48.1,0,22.8,0,23,0,13.4,0
2003/6/2,10:20:00,23.3,0,48.2,0,23,0,23.1,0,13.5,0
2003/6/2,10:30:00,23.3,0,48.2,0,23.2,0,23.1,0,13.5,0
2003/6/2,10:40:00,23.3,0,48.5,0,23.3,0,23.1,0,13.6,0
2003/6/2,10:50:00,23.3,0,48.9,0,23.3,0,23.2,0,13.6,0
2003/6/2,11:00:00,23.3,0,48.9,0,23.4,0,23.2,0,13.7,0
2003/6/2,11:10:00,23.4,0,48.6,0,23.5,0,23.2,0,13.8,0
2003/6/2,11:20:00,23.4,0,48.8,0,23.5,0,23.2,0,13.8,0
2003/6/2,11:30:00,23.4,0,48.7,0,23.5,0,23.3,0,13.9,0
2003/6/2,11:40:00,23.5,0,48.6,0,23.6,0,23.3,0,14,0
2003/6/2,11:50:00,23.5,0,48.6,0,23.6,0,23.3,0,14,0
2003/6/2,12:00:00,23.6,0,48.6,0,23.6,0,23.3,0,14.1,0
2003/6/2,12:10:00,23.6,0,48.6,0,23.7,0,23.4,0,14.1,0
2003/6/2,12:20:00,23.6,0,48.6,0,23.7,0,23.4,0,14.2,0
2003/6/2,12:30:00,23.6,0,48.6,0,23.7,0,23.4,0,14.3,0
2003/6/2,12:40:00,23.7,0,48.6,0,23.7,0,23.4,0,14.3,0
2003/6/2,12:50:00,23.7,0,48.4,0,23.8,0,23.4,0,14.4,0
2003/6/2,13:00:00,23.8,0,48.5,0,23.8,0,23.4,0,14.4,0
2003/6/2,13:10:00,23.8,0,48.5,0,23.8,0,23.5,0,14.5,0
2003/6/2,13:20:00,23.9,0,48.3,0,23.8,0,23.5,0,14.6,0
2003/6/2,13:30:00,23.9,0,48.1,0,23.8,0,23.5,0,14.6,0
2003/6/2,13:40:00,24,0,48,0,23.9,0,23.5,0,14.7,0
2003/6/2,13:50:00,24,0,47.9,0,23.9,0,23.6,0,14.8,0
2003/6/2,14:00:00,24.1,0,47.9,0,23.9,0,23.6,0,14.8,0
2003/6/2,14:10:00,24.1,0,47.8,0,24,0,23.6,0,14.9,0
2003/6/2,14:20:00,24.1,0,47.7,0,24,0,23.6,0,14.9,0
2003/6/2,14:30:00,24.1,0,47,0,23.7,0,23.7,0,18.4,0
2003/6/2,14:40:00,24.1,0,44.9,0,23.2,0,23.7,0,18.4,0
2003/6/2,14:50:00,24,0,44.1,0,22.9,0,23.7,0,15.3,0
2003/6/2,15:00:00,24,0,43.6,0,22.6,0,23.7,0,15.4,0
2003/6/2,15:10:00,24,0,43.9,0,22.1,0,23.7,0,15.4,0
2003/6/2,15:20:00,23.9,0,42,0,21.8,0,23.6,0,15.5,0
2003/6/2,15:30:00,23.9,0,43.3,0,22.5,0,23.6,0,15.6,0
2003/6/2,15:40:00,23.9,0,44.3,0,23,0,23.6,0,15.6,0
2003/6/2,15:50:00,23.9,0,44.6,0,23.3,0,23.6,0,15.7,0
2003/6/2,16:00:00,23.9,0,44.6,0,23.4,0,23.6,0,15.7,0
2003/6/2,16:10:00,23.9,0,45,0,23.5,0,23.7,0,15.8,0
2003/6/2,16:20:00,23.8,0,45.1,0,23.6,0,23.7,0,15.8,0
2003/6/2,16:30:00,23.8,0,45.3,0,23.6,0,23.6,0,15.9,0
2003/6/2,16:40:00,23.8,0,45.4,0,23.7,0,23.6,0,15.9,0
2003/6/2,16:50:00,23.8,0,45.5,0,23.7,0,23.6,0,16,0
2003/6/2,17:00:00,23.8,0,45.6,0,23.7,0,23.6,0,16.1,0
2003/6/2,17:10:00,23.7,0,45.6,0,23.7,0,23.6,0,16.1,0
2003/6/2,17:20:00,23.7,0,45.7,0,23.7,0,23.6,0,16.2,0
2003/6/2,17:30:00,23.7,0,45.7,0,23.7,0,23.6,0,16.2,0
2003/6/2,17:40:00,23.7,0,45.8,0,23.7,0,23.6,0,16.3,0
2003/6/2,17:50:00,23.7,0,45.9,0,23.7,0,23.6,0,16.4,0
2003/6/2,18:00:00,23.6,0,45.8,0,23.6,0,23.5,0,16.4,0
2003/6/2,18:10:00,23.6,0,45.7,0,23.6,0,23.5,0,16.5,0
2003/6/2,18:20:00,23.6,0,45.4,0,23.6,0,23.5,0,16.5,0
2003/6/2,18:30:00,23.6,0,45.4,0,23.6,0,23.4,0,16.6,0
2003/6/2,18:40:00,23.6,0,45.6,0,23.6,0,23.4,0,18.2,0
2003/6/2,18:50:00,23.5,0,45.4,0,23.6,0,23.4,0,15.6,0
2003/6/2,19:00:00,23.5,0,44.9,0,23.5,0,23.4,0,13,0
2003/6/2,19:10:00,23.5,0,45.2,0,23.5,0,23.3,0,13,0
2003/6/2,19:20:00,23.5,0,45.2,0,23.5,0,23.3,0,13.1,0
2003/6/2,19:30:00,23.5,0,45.3,0,23.5,0,23.3,0,13.2,0
2003/6/2,19:40:00,23.5,0,45.4,0,23.5,0,23.3,0,13.3,0
2003/6/2,19:50:00,23.5,0,45.4,0,23.4,0,23.2,0,13.3,0
2003/6/2,20:00:00,23.5,0,45.6,0,23.4,0,23.2,0,13.4,0
2003/6/2,20:10:00,23.5,0,46.3,0,23.4,0,23.3,0,13.5,0
2003/6/2,20:20:00,23.5,0,46.7,0,23.5,0,23.3,0,13.5,0
2003/6/2,20:30:00,23.5,0,47,0,23.5,0,23.3,0,13.6,0
2003/6/2,20:40:00,23.5,0,47,0,23.5,0,23.4,0,13.7,0
2003/6/2,20:50:00,23.5,0,47.1,0,23.5,0,23.4,0,13.7,0
2003/6/2,21:00:00,23.5,0,47.1,0,23.5,0,23.4,0,14.8,0
2003/6/2,21:10:00,23.4,0,47.5,0,23.5,0,23.4,0,14.8,0
2003/6/2,21:20:00,23.4,0,47.4,0,23.5,0,23.4,0,14.9,0
2003/6/2,21:30:00,23.4,0,47.2,0,23.5,0,23.3,0,14.9,0
2003/6/2,21:40:00,23.4,0,47.2,0,23.5,0,23.3,0,15,0
2003/6/2,21:50:00,23.4,0,47.1,0,23.5,0,23.2,0,15,0
2003/6/2,22:00:00,23.3,0,47.2,0,23.5,0,23.2,0,15.1,0
2003/6/2,22:10:00,23.3,0,47.2,0,23.6,0,23.2,0,15.2,0
2003/6/2,22:20:00,23.3,0,47.4,0,23.5,0,23.1,0,15.2,0
2003/6/2,22:30:00,23.3,0,47.5,0,23.5,0,23.1,0,15.3,0
2003/6/2,22:40:00,23.2,0,47.7,0,23.5,0,23.1,0,15.3,0
2003/6/2,22:50:00,23.2,0,47.9,0,23.5,0,23.2,0,15.4,0
2003/6/2,23:00:00,23.2,0,47.8,0,23.5,0,23.2,0,15.5,0
2003/6/2,23:10:00,23.2,0,48.2,0,23.4,0,23.2,0,15.5,0
2003/6/2,23:20:00,23.2,0,48,0,23.4,0,23.2,0,15.6,0
2003/6/2,23:30:00,23.2,0,48.2,0,23.3,0,23.2,0,15.6,0
2003/6/2,23:40:00,23.1,0,48.1,0,23.4,0,23.2,0,15.7,0
2003/6/2,23:50:00,23.1,0,48,0,23.4,0,23.2,0,15.8,0
2003/6/3,0:00:00,23.1,0,48,0,23.4,0,23.2,0,15.8,0
2003/6/3,0:10:00,23.1,0,48,0,23.4,0,23.2,0,15.9,0
2003/6/3,0:20:00,23.1,0,48,0,23.4,0,23.2,0,15.9,0
2003/6/3,0:30:00,23.1,0,48.2,0,23.4,0,23.2,0,16.7,0
2003/6/3,0:40:00,23.1,0,48.2,0,23.5,0,23.2,0,16.8,0
2003/6/3,0:50:00,23,0,48.2,0,23.5,0,23.1,0,16.8,0
2003/6/3,1:00:00,23,0,48,0,23.5,0,23.1,0,16.8,0
2003/6/3,1:10:00,23,0,48,0,23.6,0,23,0,16.9,0
2003/6/3,1:20:00,22.9,0,48,0,23.6,0,23,0,16.9,0
2003/6/3,1:30:00,22.9,0,47.9,0,23.6,0,23,0,17,0
2003/6/3,1:40:00,22.9,0,47.9,0,23.7,0,22.9,0,17,0
2003/6/3,1:50:00,22.9,0,47.8,0,23.7,0,22.9,0,17.1,0
2003/6/3,2:00:00,22.8,0,47.9,0,23.8,0,22.9,0,17.1,0
2003/6/3,2:10:00,22.8,0,47.9,0,23.8,0,22.9,0,17.1,0
2003/6/3,2:20:00,22.8,0,47.9,0,23.8,0,22.8,0,17.2,0
2003/6/3,2:30:00,22.8,0,47.9,0,23.8,0,22.8,0,17.2,0
2003/6/3,2:40:00,22.7,0,47.9,0,23.8,0,22.8,0,17.3,0
2003/6/3,2:50:00,22.7,0,47.9,0,23.8,0,22.7,0,17.3,0
2003/6/3,3:00:00,22.7,0,47.9,0,23.8,0,22.7,0,17.3,0
2003/6/3,3:10:00,22.7,0,47.9,0,23.8,0,22.7,0,17.4,0
2003/6/3,3:20:00,22.6,0,48,0,23.8,0,22.6,0,17.4,0
2003/6/3,3:30:00,22.6,0,47.9,0,23.8,0,22.6,0,17.4,0
2003/6/3,3:40:00,22.6,0,47.9,0,23.8,0,22.6,0,17.5,0
2003/6/3,3:50:00,22.5,0,47.9,0,23.8,0,22.5,0,17.5,0
2003/6/3,4:00:00,22.5,0,48,0,23.7,0,22.5,0,17.6,0
2003/6/3,4:10:00,22.5,0,48.7,0,23.6,0,22.5,0,17.6,0
2003/6/3,4:20:00,22.5,0,48.9,0,23.5,0,22.4,0,17.6,0
2003/6/3,4:30:00,22.5,0,48.9,0,23.5,0,22.4,0,17.7,0
2003/6/3,4:40:00,22.5,0,48.9,0,23.4,0,22.4,0,17.7,0
2003/6/3,4:50:00,22.4,0,48.9,0,23.4,0,22.4,0,17.8,0
2003/6/3,5:00:00,22.4,0,48.8,0,23.4,0,22.4,0,18.8,0
2003/6/3,5:10:00,22.4,0,48.8,0,23.4,0,22.4,0,18.8,0
2003/6/3,5:20:00,22.4,0,49,0,23.3,0,22.4,0,18.8,0
2003/6/3,5:30:00,22.4,0,48.9,0,23.3,0,22.4,0,18.8,0
2003/6/3,5:40:00,22.4,0,48.7,0,23.3,0,22.3,0,18.8,0
2003/6/3,5:50:00,22.4,0,48.7,0,23.3,0,22.4,0,18.8,0
2003/6/3,6:00:00,22.4,0,48.7,0,23.3,0,22.4,0,18.9,0
2003/6/3,6:10:00,22.4,0,48.7,0,23.3,0,22.4,0,18.9,0
2003/6/3,6:20:00,22.4,0,48.5,0,23.4,0,22.5,0,18.9,0
2003/6/3,6:30:00,22.5,0,48.3,0,23.4,0,22.6,0,18.6,0
2003/6/3,6:40:00,22.5,0,48.2,0,23.5,0,22.7,0,13.8,0
2003/6/3,6:50:00,22.6,0,48.8,0,23.6,0,22.8,0,12.6,0
2003/6/3,7:00:00,22.6,0,48.8,0,23.7,0,22.9,0,12.7,0
2003/6/3,7:10:00,22.6,0,48.8,0,23.8,0,23,0,12.7,0
2003/6/3,7:20:00,22.6,0,48.4,0,23.9,0,23.1,0,12.8,0
2003/6/3,7:30:00,22.7,0,48.6,0,24,0,23.1,0,12.9,0
2003/6/3,7:40:00,22.7,0,49.4,0,24,0,23.2,0,12.3,0
2003/6/3,7:50:00,22.8,0,49.4,0,24,0,23.2,0,12.4,0
2003/6/3,8:00:00,22.8,0,48.5,0,24.1,0,23.3,0,12.2,0
2003/6/3,8:10:00,22.9,0,48.6,0,24.1,0,23.4,0,11,0
2003/6/3,8:20:00,22.9,0,48.7,0,24.1,0,23.4,0,11.1,0
2003/6/3,8:30:00,22.9,0,48.6,0,24.1,0,23.4,0,11.2,0
2003/6/3,8:40:00,22.9,0,47.7,0,24.1,0,23.5,0,11.3,0
2003/6/3,8:50:00,23,0,47.4,0,24,0,23.5,0,11.3,0
2003/6/3,9:00:00,23,0,47.5,0,24,0,23.5,0,12.7,0
2003/6/3,9:10:00,23,0,42.3,0,24.1,0,23.5,0,12.7,0
2003/6/3,9:20:00,23,0,40.3,0,24.1,0,23.5,0,12.8,0
2003/6/3,9:30:00,23.1,0,38.9,0,24.1,0,23.5,0,12.8,0
2003/6/3,9:40:00,23.1,0,38.9,0,24.1,0,23.5,0,12.9,0
2003/6/3,9:50:00,23.1,0,37.9,0,24.1,0,23.5,0,13,0
2003/6/3,10:00:00,23.2,0,38.2,0,24.1,0,23.6,0,13,0
2003/6/3,10:10:00,23.2,0,38.1,0,24.1,0,23.6,0,13.1,0
2003/6/3,10:20:00,23.3,0,37,0,24.2,0,23.7,0,13.2,0
2003/6/3,10:30:00,23.3,0,36.6,0,24.2,0,23.8,0,13.2,0
2003/6/3,10:40:00,23.3,0,36.1,0,24.3,0,23.9,0,15.3,0
2003/6/3,10:50:00,23.4,0,36.5,0,24.3,0,24,0,15.4,0
2003/6/3,11:00:00,23.5,0,36.1,0,24.4,0,24.1,0,15.4,0
2003/6/3,11:10:00,23.5,0,36.4,0,24.4,0,24.2,0,15.4,0
2003/6/3,11:20:00,23.6,0,36.7,0,24.5,0,24.3,0,15.5,0
2003/6/3,11:30:00,23.7,0,37.3,0,24.6,0,24.4,0,15.5,0
2003/6/3,11:40:00,23.7,0,36.8,0,24.6,0,24.5,0,15.6,0
2003/6/3,11:50:00,23.7,0,37.6,0,24.6,0,24.5,0,14.5,0
2003/6/3,12:00:00,23.8,0,38.5,0,24.6,0,24.5,0,14.5,0
2003/6/3,12:10:00,23.8,0,39,0,24.6,0,24.5,0,14.6,0
2003/6/3,12:20:00,23.9,0,38.9,0,24.6,0,24.5,0,14.6,0
2003/6/3,12:30:00,24,0,38.1,0,24.6,0,24.6,0,14.7,0
2003/6/3,12:40:00,24,0,38.4,0,24.6,0,24.6,0,14.7,0
2003/6/3,12:50:00,24.1,0,38.5,0,24.6,0,24.6,0,14.8,0
2003/6/3,13:00:00,24.1,0,38.3,0,24.6,0,24.6,0,14.8,0
2003/6/3,13:10:00,24.2,0,38.4,0,24.7,0,24.7,0,14.9,0
2003/6/3,13:20:00,24.3,0,38.6,0,24.7,0,24.7,0,14.9,0
2003/6/3,13:30:00,24.4,0,38.6,0,24.7,0,24.7,0,15,0
2003/6/3,13:40:00,24.5,0,38.5,0,24.7,0,24.6,0,15.1,0
2003/6/3,13:50:00,24.5,0,38.5,0,24.8,0,24.7,0,15.1,0
2003/6/3,14:00:00,24.6,0,39.1,0,24.8,0,24.7,0,15.2,0
2003/6/3,14:10:00,24.6,0,38.4,0,24.8,0,24.7,0,15.3,0
2003/6/3,14:20:00,24.7,0,37.5,0,24.9,0,24.8,0,15.3,0
2003/6/3,14:30:00,24.7,0,36.8,0,24.9,0,24.9,0,15.4,0
2003/6/3,14:40:00,24.7,0,36.2,0,24.9,0,24.9,0,15.5,0
2003/6/3,14:50:00,24.7,0,34.4,0,25,0,25,0,15.5,0
2003/6/3,15:00:00,24.8,0,34.4,0,25,0,25,0,17.8,0
2003/6/3,15:10:00,24.7,0,34.4,0,25,0,25,0,17.9,0
2003/6/3,15:20:00,24.8,0,35.1,0,25,0,25.1,0,17.9,0
2003/6/3,15:30:00,24.8,0,35.7,0,25.1,0,25.1,0,17.9,0
2003/6/3,15:40:00,24.8,0,35.8,0,25.1,0,25.1,0,18,0
2003/6/3,15:50:00,24.8,0,35.9,0,25.1,0,25.2,0,16,0
2003/6/3,16:00:00,24.8,0,36.2,0,25.1,0,25.2,0,16.1,0
2003/6/3,16:10:00,24.8,0,35.8,0,25.1,0,25.2,0,16.1,0
2003/6/3,16:20:00,24.8,0,35.4,0,25.1,0,25.2,0,16.2,0
2003/6/3,16:30:00,24.8,0,35.6,0,25.1,0,25.2,0,16.2,0
2003/6/3,16:40:00,24.8,0,35.6,0,25.1,0,25.2,0,16.3,0
2003/6/3,16:50:00,24.8,0,35.9,0,25.1,0,25.2,0,16.4,0
2003/6/3,17:00:00,24.8,0,36,0,25.1,0,25.1,0,16.4,0
2003/6/3,17:10:00,24.8,0,36.2,0,25.1,0,25.1,0,16.5,0
2003/6/3,17:20:00,24.7,0,35.9,0,25.1,0,25.1,0,16.5,0
2003/6/3,17:30:00,24.7,0,36.1,0,25.1,0,25,0,16.6,0
2003/6/3,17:40:00,24.7,0,35.9,0,25.1,0,25,0,16.6,0
2003/6/3,17:50:00,24.7,0,36.5,0,25.1,0,25,0,16.7,0
2003/6/3,18:00:00,24.7,0,37,0,25.1,0,25,0,16.7,0
2003/6/3,18:10:00,24.7,0,37.1,0,25,0,25,0,17.3,0
2003/6/3,18:20:00,24.7,0,37.9,0,25,0,24.9,0,17.4,0
2003/6/3,18:30:00,24.7,0,38.2,0,25,0,25,0,15.6,0
2003/6/3,18:40:00,24.6,0,38.6,0,25,0,24.9,0,15.7,0
2003/6/3,18:50:00,24.6,0,39,0,25,0,24.9,0,15.7,0
2003/6/3,19:00:00,24.6,0,38.9,0,25,0,24.8,0,15.8,0
2003/6/3,19:10:00,24.6,0,38.2,0,24.9,0,24.9,0,15.8,0
2003/6/3,19:20:00,24.6,0,38.3,0,24.9,0,24.8,0,15.9,0
2003/6/3,19:30:00,24.6,0,38.4,0,24.9,0,24.9,0,14.7,0
2003/6/3,19:40:00,24.6,0,38.5,0,24.9,0,24.9,0,14.1,0
2003/6/3,19:50:00,24.5,0,38.5,0,24.9,0,24.9,0,14.2,0
2003/6/3,20:00:00,24.5,0,38.5,0,24.9,0,24.9,0,14.2,0
2003/6/3,20:10:00,24.5,0,38.5,0,24.9,0,24.8,0,14.3,0
2003/6/3,20:20:00,24.5,0,38.5,0,24.8,0,24.8,0,14.4,0
2003/6/3,20:30:00,24.5,0,37.9,0,24.8,0,24.8,0,14.4,0
2003/6/3,20:40:00,24.5,0,38.3,0,24.8,0,24.8,0,14.5,0
2003/6/3,20:50:00,24.5,0,38.3,0,24.8,0,24.8,0,14.5,0
2003/6/3,21:00:00,24.5,0,38,0,24.7,0,24.8,0,14.6,0
2003/6/3,21:10:00,24.5,0,38.9,0,24.7,0,24.8,0,14.7,0
2003/6/3,21:20:00,24.5,0,39.3,0,24.8,0,24.8,0,14.7,0
2003/6/3,21:30:00,24.5,0,39.8,0,24.8,0,24.8,0,14.8,0
2003/6/3,21:40:00,24.5,0,40.2,0,24.9,0,24.8,0,16,0
2003/6/3,21:50:00,24.5,0,40.6,0,24.9,0,24.8,0,13.5,0
2003/6/3,22:00:00,24.5,0,41.1,0,24.9,0,24.8,0,13.7,0
2003/6/3,22:10:00,24.5,0,41.4,0,24.9,0,24.9,0,13.7,0
2003/6/3,22:20:00,24.5,0,41.3,0,24.9,0,24.9,0,13.8,0
2003/6/3,22:30:00,24.5,0,41.2,0,24.9,0,24.9,0,13.9,0
2003/6/3,22:40:00,24.5,0,41.3,0,24.9,0,25,0,13.9,0
2003/6/3,22:50:00,24.5,0,42.2,0,24.9,0,25,0,14,0
2003/6/3,23:00:00,24.5,0,42.3,0,24.9,0,25.1,0,14.1,0
2003/6/3,23:10:00,24.5,0,42.3,0,24.9,0,25.1,0,14.1,0
2003/6/3,23:20:00,24.5,0,42.2,0,24.8,0,25.1,0,14.2,0
2003/6/3,23:30:00,24.5,0,42.2,0,24.8,0,25.1,0,14.3,0
2003/6/3,23:40:00,24.5,0,42.2,0,24.8,0,25.1,0,14.3,0
2003/6/3,23:50:00,24.5,0,42.4,0,24.8,0,25.1,0,14.4,0
2003/6/4,0:00:00,24.5,0,42.7,0,24.8,0,25.1,0,14.5,0
2003/6/4,0:10:00,24.5,0,42.6,0,24.8,0,25.2,0,14.5,0
2003/6/4,0:20:00,24.5,0,42.7,0,24.9,0,25.2,0,14.6,0
2003/6/4,0:30:00,24.5,0,42.8,0,24.9,0,25.2,0,16.4,0
2003/6/4,0:40:00,24.5,0,42.8,0,24.9,0,25.2,0,16.4,0
2003/6/4,0:50:00,24.5,0,42.8,0,24.9,0,25.1,0,16.4,0
2003/6/4,1:00:00,24.5,0,42.8,0,24.9,0,25.1,0,16.5,0
2003/6/4,1:10:00,24.5,0,42.8,0,24.9,0,25.1,0,16.5,0
2003/6/4,1:20:00,24.5,0,43,0,24.9,0,25.1,0,15.4,0
2003/6/4,1:30:00,24.5,0,43.1,0,25,0,25,0,15.5,0
2003/6/4,1:40:00,24.5,0,43,0,25.1,0,25,0,15.5,0
2003/6/4,1:50:00,24.4,0,42.9,0,25.2,0,25,0,15.6,0
2003/6/4,2:00:00,24.4,0,42.8,0,25.3,0,25,0,15.6,0
2003/6/4,2:10:00,24.4,0,42.9,0,25.4,0,24.9,0,15.7,0
2003/6/4,2:20:00,24.4,0,43,0,25.5,0,24.9,0,15.8,0
2003/6/4,2:30:00,24.4,0,43.1,0,25.5,0,24.9,0,15.8,0
2003/6/4,2:40:00,24.4,0,43,0,25.6,0,24.9,0,15.9,0
2003/6/4,2:50:00,24.4,0,43,0,25.6,0,24.9,0,16,0
2003/6/4,3:00:00,24.3,0,42.8,0,25.6,0,24.8,0,16,0
2003/6/4,3:10:00,24.3,0,42.9,0,25.7,0,24.8,0,16.1,0
2003/6/4,3:20:00,24.3,0,42.9,0,25.7,0,24.8,0,16.1,0